IRNSS-1B

Last updated on Sun Apr 12 2026 00:02:53 GMT+0000 (Coordinated Universal Time)

1 39635U 14017A 26101.46036174 .00000100 00000+0 00000+0 0 9999 2 39635 29.0414 241.5454 0023029 180.5081 358.3760 1.00267997 44126
UTC large
Height (km)
Speed (km/s)
/
Latitude / Longitude
Inclination (degrees)
Orbital Period (minutes)
Azimuth
Elevation
Range (km)
Doppler Factor

Next 0 passes for location: London (51.5072 / 0.1276)

Sorry there are no passes over London.
IRNSS-1B